Weather History for KSGU - May, 2013

Change the Weather History Date:

Wednesday, May 22, 2013

  Actual Average Record
Temperature  
Mean Temperature 78 °F -  
Max Temperature 91 °F 89 °F 103 °F (1967)
Min Temperature 66 °F 55 °F 40 °F (1975)
Cooling Degree Days 14    
Growing Degree Days 28 (Base 50)    
Moisture  
Dew Point 23 °F    
Average Humidity 13    
Maximum Humidity 18    
Minimum Humidity 10    
Precipitation  
Precipitation 0.00 in - - ()
Sea Level Pressure  
Sea Level Pressure 29.69 in    
Wind  
Wind Speed 16 mph (SSE)    
Max Wind Speed 34 mph    
Max Gust Speed 45 mph    
Visibility 10 miles    
Events      
Averages and records for this station are not official NWS values.
T = Trace of Precipitation, MM = Missing Value Source: NWS Daily Summary

Daily Weather History Graph

Daily Weather History Graph

Search for Another Location

Airport or City:

Trip Planner

Search our weather history database for the weather conditions in past years. The results will help you decide how hot, cold, wet, or windy it might be!

Date:

Astronomy

May. 22, 2013 Rise Set
Actual Time 6:20 AM MDT 8:41 PM MDT
Civil Twilight 5:51 AM MDT 9:11 PM MDT
Nautical Twilight 5:14 AM MDT 9:48 PM MDT
Astronomical Twilight 4:34 AM MDT 10:28 PM MDT
Moon 6:11 PM MDT (5/22) 4:23 AM MDT (5/22)
Length of Visible Light 15h 20m
Length of Day
14h 20m
Waxing Gibbous, 92% of the Moon is Illuminated
May 22
Waxing Gibbous
May 24
Full
May 31
Last Quarter
Jun 8
New
Jun 16
First Quarter

Hourly Weather History & Observations

Time (MDT) Temp. Dew Point Humidity Pressure Visibility Wind Dir Wind Speed Gust Speed Precip Events Conditions
12:15 AM 69.8 °F 17.6 °F 14% 29.77 in 10.0 mi East 8.1 mph - N/A   Clear
12:35 AM 69.8 °F 17.6 °F 14% 29.77 in 10.0 mi ESE 5.8 mph - N/A   Clear
12:55 AM 73.4 °F 19.4 °F 13% 29.77 in 10.0 mi SE 4.6 mph - N/A   Clear
1:15 AM 71.6 °F 19.4 °F 14% 29.76 in 10.0 mi SE 11.5 mph - N/A   Clear
1:35 AM 71.6 °F 19.4 °F 14% 29.76 in 10.0 mi ESE 12.7 mph - N/A   Clear
1:55 AM 69.8 °F 19.4 °F 15% 29.75 in 10.0 mi SE 15.0 mph - N/A   Clear
2:15 AM 69.8 °F 19.4 °F 15% 29.75 in 10.0 mi ESE 15.0 mph - N/A   Clear
2:35 AM 69.8 °F 19.4 °F 15% 29.75 in 10.0 mi ESE 13.8 mph - N/A   Clear
2:55 AM 69.8 °F 19.4 °F 15% 29.75 in 10.0 mi ESE 11.5 mph - N/A   Clear
3:15 AM 69.8 °F 19.4 °F 15% 29.74 in 10.0 mi ESE 12.7 mph - N/A   Clear
3:35 AM 68.0 °F 19.4 °F 16% 29.74 in 10.0 mi ESE 11.5 mph - N/A   Clear
3:55 AM 69.8 °F 19.4 °F 15% 29.74 in 10.0 mi SE 9.2 mph - N/A   Clear
4:15 AM 69.8 °F 19.4 °F 15% 29.73 in 10.0 mi ESE 16.1 mph - N/A   Clear
4:35 AM 69.8 °F 19.4 °F 15% 29.73 in 10.0 mi ESE 16.1 mph - N/A   Clear
4:55 AM 68.0 °F 17.6 °F 15% 29.73 in 10.0 mi ESE 16.1 mph - N/A   Clear
5:15 AM 66.2 °F 17.6 °F 15% 29.73 in 10.0 mi ESE 17.3 mph - N/A   Clear
5:35 AM 66.2 °F 17.6 °F 15% 29.74 in 10.0 mi South 4.6 mph - N/A   Clear
5:55 AM 66.2 °F 19.4 °F 17% 29.73 in 10.0 mi ESE 17.3 mph - N/A   Clear
6:15 AM 66.2 °F 19.4 °F 17% 29.73 in 10.0 mi ESE 17.3 mph - N/A   Clear
6:35 AM 66.2 °F 19.4 °F 17% 29.74 in 10.0 mi ESE 15.0 mph - N/A   Clear
6:55 AM 66.2 °F 19.4 °F 17% 29.74 in 10.0 mi ESE 11.5 mph - N/A   Clear
7:15 AM 66.2 °F 21.2 °F 18% 29.74 in 10.0 mi ESE 17.3 mph - N/A   Clear
7:35 AM 68.0 °F 21.2 °F 17% 29.75 in 10.0 mi ESE 16.1 mph - N/A   Clear
7:55 AM 69.8 °F 23.0 °F 17% 29.75 in 10.0 mi ESE 15.0 mph - N/A   Clear
8:15 AM 71.6 °F 23.0 °F 16% 29.76 in 10.0 mi ESE 16.1 mph - N/A   Clear
8:35 AM 73.4 °F 24.8 °F 16% 29.76 in 10.0 mi East 15.0 mph - N/A   Clear
8:55 AM 75.2 °F 24.8 °F 15% 29.76 in 10.0 mi ESE 12.7 mph - N/A   Clear
9:15 AM 77.0 °F 26.6 °F 16% 29.76 in 10.0 mi East 11.5 mph - N/A   Clear
9:35 AM 77.0 °F 28.4 °F 17% 29.75 in 10.0 mi Calm Calm - N/A   Clear
9:55 AM 78.8 °F 28.4 °F 16% 29.75 in 10.0 mi Calm Calm - N/A   Clear
10:15 AM 78.8 °F 28.4 °F 16% 29.75 in 10.0 mi SSE 6.9 mph - N/A   Clear
10:35 AM 82.4 °F 28.4 °F 14% 29.74 in 10.0 mi SW 21.9 mph 27.6 mph N/A   Clear
10:55 AM 82.4 °F 26.6 °F 13% 29.73 in 9.0 mi SSW 33.4 mph 41.4 mph N/A   Clear
11:15 AM 84.2 °F 26.6 °F 12% 29.73 in 10.0 mi SSW 32.2 mph 40.3 mph N/A   Clear
11:35 AM 84.2 °F 26.6 °F 12% 29.72 in 10.0 mi SW 29.9 mph 35.7 mph N/A   Clear
11:55 AM 86.0 °F 26.6 °F 12% 29.72 in 10.0 mi SW 28.8 mph 35.7 mph N/A   Clear
12:15 PM 87.8 °F 24.8 °F 10% 29.71 in 10.0 mi SSW 26.5 mph 34.5 mph N/A   Clear
12:35 PM 87.8 °F 26.6 °F 11% 29.70 in 10.0 mi SW 25.3 mph 38.0 mph N/A   Clear
12:55 PM 87.8 °F 26.6 °F 11% 29.70 in 10.0 mi SSW 28.8 mph 32.2 mph N/A   Clear
1:15 PM 87.8 °F 26.6 °F 11% 29.70 in 10.0 mi SSW 23.0 mph 34.5 mph N/A   Clear
1:35 PM 89.6 °F 26.6 °F 10% 29.69 in 10.0 mi SSW 28.8 mph 43.7 mph N/A   Clear
1:55 PM 89.6 °F 26.6 °F 10% 29.68 in 10.0 mi SSW 23.0 mph 35.7 mph N/A   Clear
2:15 PM 89.6 °F 26.6 °F 10% 29.67 in 10.0 mi SSW 26.5 mph 43.7 mph N/A   Clear
2:35 PM 91.4 °F 26.6 °F 10% 29.67 in 10.0 mi South 23.0 mph 36.8 mph N/A   Clear
2:55 PM 91.4 °F 26.6 °F 10% 29.66 in 10.0 mi SW 24.2 mph 36.8 mph N/A   Clear
3:15 PM 91.4 °F 28.4 °F 10% 29.66 in 8.0 mi SW 25.3 mph 40.3 mph N/A   Clear
3:35 PM 91.4 °F 28.4 °F 10% 29.65 in 10.0 mi SW 25.3 mph 33.4 mph N/A   Clear
3:55 PM 91.4 °F 28.4 °F 10% 29.63 in 10.0 mi South 32.2 mph 41.4 mph N/A   Clear
4:15 PM 91.4 °F 28.4 °F 10% 29.63 in 10.0 mi SW 27.6 mph 41.4 mph N/A   Clear
4:35 PM 91.4 °F 28.4 °F 10% 29.62 in 10.0 mi SW 28.8 mph 40.3 mph N/A   Clear
4:55 PM 91.4 °F 28.4 °F 10% 29.62 in 10.0 mi SW 32.2 mph 39.1 mph N/A   Clear
5:15 PM 91.4 °F 28.4 °F 10% 29.62 in 10.0 mi SW 29.9 mph 39.1 mph N/A   Clear
5:35 PM 91.4 °F 28.4 °F 10% 29.61 in 10.0 mi SW 32.2 mph 44.9 mph N/A   Clear
5:55 PM 91.4 °F 28.4 °F 10% 29.61 in 10.0 mi SSW 31.1 mph 38.0 mph N/A   Clear
6:15 PM 89.6 °F 26.6 °F 10% 29.61 in 10.0 mi SSW 34.5 mph 40.3 mph N/A   Clear
6:35 PM 89.6 °F 26.6 °F 10% 29.60 in 10.0 mi SW 29.9 mph 36.8 mph N/A   Clear
6:55 PM 89.6 °F 26.6 °F 10% 29.61 in 10.0 mi SSW 25.3 mph 39.1 mph N/A   Clear
7:15 PM 89.6 °F 26.6 °F 10% 29.61 in 10.0 mi SSW 27.6 mph - N/A   Clear
7:35 PM 87.8 °F 26.6 °F 11% 29.61 in 10.0 mi SSW 29.9 mph 36.8 mph N/A   Clear
7:55 PM 87.8 °F 24.8 °F 10% 29.62 in 10.0 mi SSW 27.6 mph 34.5 mph N/A   Clear
8:15 PM 86.0 °F 24.8 °F 11% 29.62 in 10.0 mi SSW 25.3 mph 33.4 mph N/A   Clear
8:35 PM 84.2 °F 23.0 °F 11% 29.63 in 10.0 mi SSW 24.2 mph 34.5 mph N/A   Clear
8:55 PM 84.2 °F 21.2 °F 10% 29.63 in 10.0 mi SSW 23.0 mph 27.6 mph N/A   Clear
9:15 PM 82.4 °F 21.2 °F 10% 29.63 in 10.0 mi SSW 17.3 mph 25.3 mph N/A   Clear
9:35 PM 82.4 °F 21.2 °F 10% 29.64 in 10.0 mi SSW 13.8 mph 23.0 mph N/A   Clear
9:55 PM 80.6 °F 19.4 °F 10% 29.65 in 10.0 mi South 9.2 mph - N/A   Clear
10:15 PM 78.8 °F 19.4 °F 11% 29.65 in 10.0 mi South 10.4 mph - N/A   Clear
10:35 PM 78.8 °F 19.4 °F 11% 29.65 in 10.0 mi SSE 11.5 mph - N/A   Clear
10:55 PM 73.4 °F 15.8 °F 11% 29.65 in 10.0 mi SE 10.4 mph - N/A   Clear
11:15 PM 73.4 °F 15.8 °F 11% 29.65 in 10.0 mi SSE 12.7 mph - N/A   Clear
11:35 PM 75.2 °F 19.4 °F 12% 29.65 in 10.0 mi SSE 12.7 mph - N/A   Clear
11:55 PM 75.2 °F 19.4 °F 12% 29.66 in 10.0 mi SSE 9.2 mph - N/A   Clear